Torna al catalogo

FENGYUN 1C DEB

AttivoSSO
NORAD 30415·DEBRIS·🇨🇳 China

Lanciato May 10, 1999 da Taiyuan Satellite Launch Center

Loading…

Prossimi Passaggi (prossime 24 ore)

TLE

AggiornatoSource: Space-Track

Epoca: Sep 14, 2026, 10:14 UTC

1 30415U 99025AEE 26257.42669399  .00001047  00000-0  10401-2 0  9998
2 30415  99.6340 322.9617 0231148 281.1529  90.0378 13.69588088976514

Traccia FENGYUN 1C DEB in tempo reale con AllMySat

Download on the App Store